1999 SK10 

Epoch 1999 Oct. 9.0 TT = JDT 2451460.5                  Nakano

M 324.06387              (2000.0)            P               Q

n   0.42069789     Peri.  268.77223     -0.28870409     -0.95667404

a   1.7639617      Node   198.14557     +0.91955021     -0.26609145

e   0.4410325      Incl.    6.96137     +0.26660339     -0.11819529

P   2.34           H   19.3           G   0.15           U   *

Residuals in seconds of arc 

990930 691  0.0   0.1+    991002 327  1.0+  1.7+    991015 691  0.2+  0.6-  

990930 691  0.1+  0.0     991002 327  0.5-  0.4+    991015 704  0.4+  0.9+  

990930 691  0.1-  0.3+    991002 327  0.6-  0.0     991015 704  0.7-  0.5+  

991001 691  0.1-  0.4-    991003 691  0.0   0.2-    991015 704  0.2-  0.2+  

991001 691  0.4-  0.4-    991003 691  0.0   0.3-    991016 658  0.5+  0.2-  

991001 691  0.4-  0.4-    991003 691  0.1+  0.2-    991016 658  0.1+  0.2+  

991002 046 (0.1-  3.0+)   991006 691  0.3-  0.4-    991016 658  0.1-  0.5-  

991002 046  0.5+  1.1-    991006 691  0.4-  0.8-    991017 413  0.4-  0.3-  

991002 046 (2.9+  1.0-)   991008 118  0.2-  0.2-    991017 413  0.4-  0.2-  

991002 046  1.1+  0.4-    991008 118  0.4+  0.1+    991017 413  0.4-  0.2-  

991002 557  0.2+  0.7+    991008 691  0.1-  0.4+    991017 360  0.6+  0.2+  

991002 557  0.1+  0.2+    991008 691  0.2+  0.5+    991017 360  0.4+  0.4+  

991002 557  0.2-  0.3-    991015 704  0.1-  0.0     991017 360  0.1-  0.2+  

991002 557  0.0   0.2+    991015 691  0.2+  0.4-                            

991002 426  0.4-  0.4+    991015 691  0.1+  0.4-                            

 

NAKANO

         **** Don't distribute anyone except personal use only ****

                (C) Copyright 1999 OAA/ComputingSection

write mail from CFAD0::NAKANO on 1999-10-20 03:04:20(JST).





                         



–ß‚è‚Ü‚·B